Time,TemperatureF,DewpointF,PressureIn,WindDirection,WindDirectionDegrees,WindSpeedMPH,WindSpeedGustMPH,Humidity,HourlyPrecipIn,Conditions,Clouds,dailyrainin,SoftwareType,DateUTC
2013-07-31 00:11:00,69.0,63.0,-100.00,NE,50,2.0,4.0,82,-99.99,,,-99.99,,2013-07-31 04:11:00,
2013-07-31 00:22:00,69.0,63.0,-100.00,ENE,60,2.0,4.0,80,-99.99,,,-99.99,,2013-07-31 04:22:00,
2013-07-31 00:32:00,69.0,63.0,-100.00,East,100,2.0,4.0,80,-99.99,,,-99.99,,2013-07-31 04:32:00,
2013-07-31 00:52:00,69.0,63.0,-100.00,ESE,120,2.0,2.0,81,-99.99,,,-99.99,,2013-07-31 04:52:00,
2013-07-31 01:01:00,69.0,63.0,-100.00,SE,130,2.0,2.0,81,-99.99,,,-99.99,,2013-07-31 05:01:00,
2013-07-31 01:11:00,69.0,63.0,-100.00,SE,130,2.0,2.0,81,-99.99,,,-99.99,,2013-07-31 05:11:00,
2013-07-31 01:21:00,69.0,63.0,-100.00,East,100,2.0,4.0,80,-99.99,,,-99.99,,2013-07-31 05:21:00,
2013-07-31 01:32:00,69.0,63.0,-100.00,ENE,70,2.0,4.0,80,-99.99,,,-99.99,,2013-07-31 05:32:00,
2013-07-31 01:42:00,69.0,62.0,-100.00,ENE,70,2.0,4.0,79,-99.99,,,-99.99,,2013-07-31 05:42:00,
2013-07-31 01:51:00,69.0,62.0,-100.00,ENE,70,2.0,4.0,79,-99.99,,,-99.99,,2013-07-31 05:51:00,
2013-07-31 02:01:00,69.0,63.0,-100.00,ENE,60,4.0,4.0,82,-99.99,,,-99.99,,2013-07-31 06:01:00,
2013-07-31 02:11:00,69.0,63.0,-100.00,ENE,60,4.0,4.0,82,-99.99,,,-99.99,,2013-07-31 06:11:00,
2013-07-31 02:32:00,69.0,62.0,-100.00,East,80,4.0,4.0,78,-99.99,,,-99.99,,2013-07-31 06:32:00,
2013-07-31 02:42:00,69.0,62.0,-100.00,East,80,4.0,4.0,78,-99.99,,,-99.99,,2013-07-31 06:42:00,
2013-07-31 02:52:00,69.0,62.0,-100.00,East,80,4.0,4.0,78,-99.99,,,-99.99,,2013-07-31 06:52:00,
2013-07-31 03:01:00,69.0,62.0,-100.00,East,80,4.0,7.0,77,-99.99,,,-99.99,,2013-07-31 07:01:00,
2013-07-31 03:12:00,69.0,62.0,-100.00,ENE,70,4.0,4.0,78,-99.99,,,-99.99,,2013-07-31 07:12:00,
2013-07-31 03:22:00,69.0,62.0,-100.00,East,80,4.0,4.0,78,-99.99,,,-99.99,,2013-07-31 07:22:00,
2013-07-31 03:32:00,69.0,62.0,-100.00,East,90,4.0,7.0,78,-99.99,,,-99.99,,2013-07-31 07:32:00,
2013-07-31 03:43:00,69.0,62.0,-100.00,East,80,7.0,7.0,78,-99.99,,,-99.99,,2013-07-31 07:43:00,
2013-07-31 03:52:00,69.0,62.0,-100.00,East,80,7.0,7.0,78,-99.99,,,-99.99,,2013-07-31 07:52:00,
2013-07-31 04:02:00,68.0,62.0,-100.00,East,80,7.0,9.0,78,-99.99,,,-99.99,,2013-07-31 08:02:00,
2013-07-31 04:22:00,68.0,62.0,-100.00,East,80,7.0,9.0,79,-99.99,,,-99.99,,2013-07-31 08:22:00,
2013-07-31 04:32:00,68.0,62.0,-100.00,East,80,7.0,9.0,80,-99.99,,,-99.99,,2013-07-31 08:32:00,
2013-07-31 04:53:00,68.0,62.0,-100.00,East,90,4.0,7.0,79,-99.99,,,-99.99,,2013-07-31 08:53:00,
2013-07-31 05:02:00,69.0,62.0,-100.00,ESE,110,4.0,7.0,78,-99.99,,,-99.99,,2013-07-31 09:02:00,
2013-07-31 05:32:00,69.0,62.0,-100.00,SE,130,9.0,11.0,77,-99.99,,,-99.99,,2013-07-31 09:32:00,
2013-07-31 05:43:00,69.0,62.0,-100.00,SE,130,9.0,11.0,78,-99.99,,,-99.99,,2013-07-31 09:43:00,
2013-07-31 06:01:00,68.0,62.0,-100.00,SE,130,9.0,11.0,79,-99.99,,,-99.99,,2013-07-31 10:01:00,
2013-07-31 06:32:00,67.0,62.0,-100.00,ESE,120,7.0,11.0,85,-99.99,,,-99.99,,2013-07-31 10:32:00,
2013-07-31 06:44:00,67.0,63.0,-100.00,ESE,120,9.0,11.0,88,-99.99,,,-99.99,,2013-07-31 10:44:00,
2013-07-31 06:52:00,67.0,63.0,-100.00,ESE,120,9.0,11.0,88,-99.99,,,-99.99,,2013-07-31 10:52:00,
2013-07-31 07:02:00,66.0,63.0,-100.00,SE,130,9.0,11.0,89,-99.99,,,-99.99,,2013-07-31 11:02:00,
2013-07-31 07:11:00,66.0,63.0,-100.00,SE,130,9.0,11.0,89,-99.99,,,-99.99,,2013-07-31 11:11:00,
2013-07-31 07:21:00,66.0,63.0,-100.00,ESE,120,9.0,11.0,90,-99.99,,,-99.99,,2013-07-31 11:21:00,
2013-07-31 07:32:00,66.0,63.0,-100.00,ESE,120,9.0,11.0,91,-99.99,,,-99.99,,2013-07-31 11:32:00,
2013-07-31 07:43:00,66.0,64.0,-100.00,ESE,110,9.0,11.0,91,-99.99,,,-99.99,,2013-07-31 11:43:00,
2013-07-31 07:52:00,66.0,64.0,-100.00,ESE,110,9.0,11.0,91,-99.99,,,-99.99,,2013-07-31 11:52:00,
2013-07-31 08:02:00,66.0,63.0,-100.00,ESE,120,9.0,13.0,91,-99.99,,,-99.99,,2013-07-31 12:02:00,
2013-07-31 08:11:00,66.0,63.0,-100.00,ESE,120,9.0,13.0,91,-99.99,,,-99.99,,2013-07-31 12:11:00,
2013-07-31 08:32:00,66.0,64.0,-100.00,SE,130,9.0,11.0,91,-99.99,,,-99.99,,2013-07-31 12:32:00,
2013-07-31 08:43:00,66.0,64.0,-100.00,SE,140,9.0,11.0,91,-99.99,,,-99.99,,2013-07-31 12:43:00,
2013-07-31 09:01:00,66.0,64.0,-100.00,SE,140,7.0,9.0,91,-99.99,,,-99.99,,2013-07-31 13:01:00,
2013-07-31 09:11:00,66.0,64.0,-100.00,SE,140,7.0,9.0,91,-99.99,,,-99.99,,2013-07-31 13:11:00,
2013-07-31 09:43:00,66.0,64.0,-100.00,SSE,150,7.0,7.0,91,-99.99,,,-99.99,,2013-07-31 13:43:00,
2013-07-31 09:53:00,66.0,64.0,-100.00,SSE,150,4.0,7.0,92,-99.99,,,-99.99,,2013-07-31 13:53:00,
2013-07-31 10:02:00,66.0,64.0,-100.00,SE,140,4.0,7.0,93,-99.99,,,-99.99,,2013-07-31 14:02:00,
2013-07-31 10:11:00,66.0,64.0,-100.00,SE,140,4.0,7.0,93,-99.99,,,-99.99,,2013-07-31 14:11:00,
2013-07-31 10:22:00,66.0,64.0,-100.00,SE,140,4.0,7.0,93,-99.99,,,-99.99,,2013-07-31 14:22:00,
2013-07-31 10:34:00,66.0,64.0,-100.00,SE,140,4.0,7.0,93,-99.99,,,-99.99,,2013-07-31 14:34:00,
2013-07-31 10:43:00,66.0,65.0,-100.00,SSE,150,4.0,4.0,95,-99.99,,,-99.99,,2013-07-31 14:43:00,
2013-07-31 10:53:00,66.0,65.0,-100.00,SSE,150,4.0,4.0,95,-99.99,,,-99.99,,2013-07-31 14:53:00,
2013-07-31 11:01:00,66.0,65.0,-100.00,SE,140,4.0,7.0,95,-99.99,,,-99.99,,2013-07-31 15:01:00,
2013-07-31 11:11:00,66.0,65.0,-100.00,SE,140,4.0,7.0,95,-99.99,,,-99.99,,2013-07-31 15:11:00,
2013-07-31 11:22:00,66.0,65.0,-100.00,SE,140,4.0,7.0,94,-99.99,,,-99.99,,2013-07-31 15:22:00,
2013-07-31 11:33:00,66.0,65.0,-100.00,SE,140,4.0,7.0,94,-99.99,,,-99.99,,2013-07-31 15:33:00,
2013-07-31 11:43:00,67.0,64.0,-100.00,SSE,160,7.0,9.0,92,-99.99,,,-99.99,,2013-07-31 15:43:00,
2013-07-31 11:52:00,67.0,64.0,-100.00,SSE,160,7.0,9.0,92,-99.99,,,-99.99,,2013-07-31 15:52:00,
2013-07-31 12:01:00,67.0,65.0,-100.00,SSE,160,4.0,7.0,93,-99.99,,,-99.99,,2013-07-31 16:01:00,
2013-07-31 12:11:00,67.0,65.0,-100.00,SSE,160,4.0,7.0,93,-99.99,,,-99.99,,2013-07-31 16:11:00,
2013-07-31 12:33:00,66.0,65.0,-100.00,South,170,4.0,7.0,94,-99.99,,,-99.99,,2013-07-31 16:33:00,
2013-07-31 12:43:00,66.0,65.0,-100.00,South,180,4.0,7.0,94,-99.99,,,-99.99,,2013-07-31 16:43:00,
2013-07-31 12:52:00,66.0,65.0,-100.00,South,180,4.0,7.0,94,-99.99,,,-99.99,,2013-07-31 16:52:00,
2013-07-31 13:01:00,67.0,65.0,-100.00,South,190,7.0,7.0,93,-99.99,,,-99.99,,2013-07-31 17:01:00,
2013-07-31 13:12:00,67.0,65.0,-100.00,South,190,7.0,7.0,93,-99.99,,,-99.99,,2013-07-31 17:12:00,
2013-07-31 13:33:00,67.0,65.0,-100.00,South,190,4.0,7.0,93,-99.99,,,-99.99,,2013-07-31 17:33:00,
2013-07-31 13:43:00,67.0,65.0,-100.00,South,190,4.0,4.0,93,-99.99,,,-99.99,,2013-07-31 17:43:00,
2013-07-31 14:01:00,67.0,65.0,-100.00,South,190,4.0,7.0,92,-99.99,,,-99.99,,2013-07-31 18:01:00,
2013-07-31 14:12:00,67.0,65.0,-100.00,South,190,4.0,7.0,92,-99.99,,,-99.99,,2013-07-31 18:12:00,
2013-07-31 14:32:00,67.0,65.0,-100.00,SSW,200,4.0,7.0,92,-99.99,,,-99.99,,2013-07-31 18:32:00,
2013-07-31 14:43:00,67.0,65.0,-100.00,SSW,200,4.0,7.0,92,-99.99,,,-99.99,,2013-07-31 18:43:00,
2013-07-31 14:52:00,67.0,65.0,-100.00,SSW,210,4.0,7.0,92,-99.99,,,-99.99,,2013-07-31 18:52:00,
2013-07-31 15:11:00,67.0,65.0,-100.00,SSW,210,4.0,9.0,93,-99.99,,,-99.99,,2013-07-31 19:11:00,
2013-07-31 15:32:00,67.0,65.0,-100.00,SSW,200,7.0,9.0,93,-99.99,,,-99.99,,2013-07-31 19:32:00,
2013-07-31 15:43:00,67.0,65.0,-100.00,SSW,200,7.0,9.0,93,-99.99,,,-99.99,,2013-07-31 19:43:00,
2013-07-31 15:50:00,67.0,65.0,-100.00,WSW,240,7.0,9.0,93,-99.99,,,-99.99,,2013-07-31 19:50:00,
2013-07-31 16:01:00,67.0,65.0,-100.00,SW,230,7.0,9.0,93,-99.99,,,-99.99,,2013-07-31 20:01:00,
2013-07-31 16:11:00,67.0,65.0,-100.00,SW,230,7.0,9.0,93,-99.99,,,-99.99,,2013-07-31 20:11:00,
2013-07-31 16:32:00,67.0,65.0,-100.00,WSW,240,7.0,9.0,93,-99.99,,,-99.99,,2013-07-31 20:32:00,
2013-07-31 16:42:00,67.0,65.0,-100.00,WSW,240,7.0,9.0,93,-99.99,,,-99.99,,2013-07-31 20:42:00,
2013-07-31 17:32:00,67.0,65.0,-100.00,West,260,7.0,9.0,93,-99.99,,,-99.99,,2013-07-31 21:32:00,
2013-07-31 17:42:00,67.0,65.0,-100.00,West,260,7.0,9.0,93,-99.99,,,-99.99,,2013-07-31 21:42:00,
2013-07-31 17:53:00,67.0,65.0,-100.00,West,260,7.0,9.0,93,-99.99,,,-99.99,,2013-07-31 21:53:00,
2013-07-31 18:01:00,68.0,65.0,-100.00,WSW,250,7.0,9.0,92,-99.99,,,-99.99,,2013-07-31 22:01:00,
2013-07-31 18:11:00,68.0,65.0,-100.00,WSW,250,7.0,9.0,92,-99.99,,,-99.99,,2013-07-31 22:11:00,
2013-07-31 18:22:00,68.0,65.0,-100.00,WSW,250,7.0,9.0,92,-99.99,,,-99.99,,2013-07-31 22:22:00,
2013-07-31 18:32:00,67.0,65.0,-100.00,West,280,11.0,13.0,92,-99.99,,,-99.99,,2013-07-31 22:32:00,
2013-07-31 18:42:00,67.0,65.0,-100.00,WNW,290,13.0,20.0,91,-99.99,,,-99.99,,2013-07-31 22:42:00,
2013-07-31 18:52:00,67.0,65.0,-100.00,WNW,290,13.0,20.0,91,-99.99,,,-99.99,,2013-07-31 22:52:00,
2013-07-31 19:01:00,67.0,65.0,-100.00,WNW,290,11.0,20.0,90,-99.99,,,-99.99,,2013-07-31 23:01:00,
2013-07-31 19:11:00,67.0,65.0,-100.00,WNW,290,11.0,20.0,90,-99.99,,,-99.99,,2013-07-31 23:11:00,
2013-07-31 19:21:00,67.0,64.0,-100.00,West,280,11.0,13.0,89,-99.99,,,-99.99,,2013-07-31 23:21:00,
2013-07-31 19:42:00,67.0,64.0,-100.00,WNW,290,11.0,16.0,88,-99.99,,,-99.99,,2013-07-31 23:42:00,
2013-07-31 19:52:00,67.0,64.0,-100.00,WNW,300,11.0,13.0,88,-99.99,,,-99.99,,2013-07-31 23:52:00,
2013-07-31 20:01:00,67.0,64.0,-100.00,WNW,300,11.0,13.0,88,-99.99,,,-99.99,,2013-08-01 00:01:00,
2013-07-31 20:11:00,67.0,64.0,-100.00,WNW,300,11.0,13.0,88,-99.99,,,-99.99,,2013-08-01 00:11:00,
2013-07-31 20:22:00,68.0,64.0,-100.00,WNW,290,9.0,11.0,87,-99.99,,,-99.99,,2013-08-01 00:22:00,
2013-07-31 20:32:00,68.0,64.0,-100.00,WNW,300,9.0,11.0,87,-99.99,,,-99.99,,2013-08-01 00:32:00,
2013-07-31 20:42:00,67.0,63.0,-100.00,WNW,300,9.0,11.0,87,-99.99,,,-99.99,,2013-08-01 00:42:00,
2013-07-31 20:52:00,67.0,63.0,-100.00,WNW,300,9.0,11.0,87,-99.99,,,-99.99,,2013-08-01 00:52:00,
2013-07-31 21:01:00,67.0,63.0,-100.00,WNW,290,7.0,11.0,87,-99.99,,,-99.99,,2013-08-01 01:01:00,
2013-07-31 21:11:00,67.0,63.0,-100.00,WNW,300,7.0,9.0,87,-99.99,,,-99.99,,2013-08-01 01:11:00,
2013-07-31 21:21:00,67.0,63.0,-100.00,WNW,300,7.0,9.0,87,-99.99,,,-99.99,,2013-08-01 01:21:00,
2013-07-31 21:32:00,67.0,64.0,-100.00,NW,310,7.0,9.0,88,-99.99,,,-99.99,,2013-08-01 01:32:00,
2013-07-31 21:42:00,67.0,63.0,-100.00,NW,310,7.0,9.0,88,-99.99,,,-99.99,,2013-08-01 01:42:00,
2013-07-31 22:01:00,67.0,63.0,-100.00,NW,320,4.0,7.0,88,-99.99,,,-99.99,,2013-08-01 02:01:00,
2013-07-31 22:12:00,67.0,63.0,-100.00,NW,320,4.0,7.0,88,-99.99,,,-99.99,,2013-08-01 02:12:00,
2013-07-31 22:22:00,67.0,63.0,-100.00,NW,320,4.0,7.0,88,-99.99,,,-99.99,,2013-08-01 02:22:00,
2013-07-31 22:32:00,67.0,63.0,-100.00,NNW,330,4.0,7.0,88,-99.99,,,-99.99,,2013-08-01 02:32:00,
2013-07-31 22:42:00,67.0,63.0,-100.00,NNW,330,2.0,4.0,88,-99.99,,,-99.99,,2013-08-01 02:42:00,
2013-07-31 23:01:00,67.0,64.0,-100.00,NW,310,4.0,4.0,89,-99.99,,,-99.99,,2013-08-01 03:01:00,
2013-07-31 23:11:00,67.0,64.0,-100.00,NW,310,4.0,4.0,89,-99.99,,,-99.99,,2013-08-01 03:11:00,
2013-07-31 23:22:00,67.0,64.0,-100.00,NNW,330,2.0,4.0,89,-99.99,,,-99.99,,2013-08-01 03:22:00,
2013-07-31 23:32:00,67.0,64.0,-100.00,WNW,290,2.0,4.0,89,-99.99,,,-99.99,,2013-08-01 03:32:00,
2013-07-31 23:43:00,67.0,63.0,-100.00,WNW,290,2.0,2.0,89,-99.99,,,-99.99,,2013-08-01 03:43:00,
2013-07-31 23:53:00,67.0,63.0,-100.00,WNW,290,2.0,2.0,89,-99.99,,,-99.99,,2013-08-01 03:53:00,